CZ-3B DEB, 42459

Orbit data source: Space-Track

CZ-3B DEB, 42459 is space debris in HEO originally from a launch on Sat, 04 Sep 2010 UTC launched from the Xichang Space Center, China (XSC). Debris objects in space refer to the collection of defunct objects orbiting the Earth. Examples of debris include non-operational satellites, rocket bodies, and fragments generated from explosions, collisions, or faulty payload assembly.

Loading next visibility...
Identifier
42459, 2010-042AA
Orbit
HEO
Country
Flag of CNCN / PRC
Related business
Manufacturer
CALT
Mission
Spacecraft
Bus & Motor
Unknown
Mass
Unknown
Launch date (UTC)
2010-09-04 (15 years ago)
Launch vehicle
Unknown
Launch site
Xichang Space Center, China (XSC)
Object type
Payload
Rocket body
Debris
Shape & HBR
Unknown shape, 0.1 m
Radar Cross Section
Medium (>0.1 m² and <1 m²)

Expand to show TLE details & history
Last TLE update: 20 hours ago

TLE from 20 hours ago
0 CZ-3B DEB
1 42459U 10042AA  25288.50112860 -.00000348  00000-0  00000+0 0  9994
2 42459  27.7071 353.3047 7271100 186.4557 152.1932  1.87042802 74050
Epoch: 2025-10-15T12:01Z
TLE epoch observation values (Epoch: 2025-10-15T12:01:37.511Z)
Latitude
0.00003°
Longitude
148.62914°
Altitude
40,894.692 km
Speed
1.593 km/s
True Right ascension
23h 33m 14s
True Declination
0° 00' 00"
Sunlit
Object was in daylight at epoch
Visualization orbit readout
Latitude
Unknown
Longitude
Unknown
Altitude
Unknown
Speed
Unknown
Apparent Right ascension
Unknown
Apparent Declination
Unknown
Sunlit
N/A
Visualization observer readout
Local Sidereal Time
02:55:17
Azimuth
Unknown
Elevation
Unknown
Doppler factor
Unknown
Orbital elements
Apogee altitude
41,685.102 km
Perigee altitude
1,216.039 km
Semi-major axis
27,828.707 km
Eccentricity
0.72711
Inclination
27.7071°
RAAN
353.3047°
Arg. of periapsis
186.4557°
True anomaly
173.52803°
Mean anomaly
152.1932°
Eccentric anomaly
163.80946°
Mean motion
0.46752 °/min
Orbital period
770.01 mins
BSTAR
0
Loading maneuver chart data...
Computing Atmospheric mass density...
Loading historical data...
Loading historical data...
Loading historical data...
Loading historical data...
Loading historical data...
Loading historical data...
Loading historical data...

Documentation

Showing up to 5 results
|